RYR4566 LIRI-EBCI

Flight info

Callsign RYR4566
Flight time N/A
Altitude 38000
Route SOR DCT TEA DCT ATRUP DCT SORUG DCT NAXAV DCT UNIMI DCT MOGTI DCT KPT L608 MISGI Z104 GESLO N852 LNO
Aircraft B738/M-SDE2E3FGHIRWXY/LB1

Departure

Time 2026-04-26 11:00
Airport Salerno Costa d'Amalfi Airport (LIRI)

Arrival

Time N/A
Airport Brussels South Charleroi Airport (EBCI)
Time Latitude Longitude Altitude Speed Heading
2026-04-26 10:21 40.62123 14.92128 127 ft 0 kts 139°
2026-04-26 10:54 40.62128 14.92122 123 ft 2 kts 114°
2026-04-26 10:54 40.62131 14.92101 124 ft 2 kts 80°
2026-04-26 10:55 40.62126 14.92081 125 ft 2 kts 62°
2026-04-26 10:55 40.62117 14.92062 125 ft 2 kts 54°
2026-04-26 10:55 40.62109 14.92048 124 ft 1 kts 52°
2026-04-26 10:55 40.62108 14.92045 124 ft 0 kts 52°
2026-04-26 10:57 40.62116 14.92059 126 ft 6 kts 53°
2026-04-26 10:58 40.62150 14.92103 125 ft 7 kts
2026-04-26 10:58 40.62193 14.92070 132 ft 7 kts 324°
2026-04-26 10:58 40.62226 14.92024 132 ft 7 kts 287°
2026-04-26 10:58 40.62249 14.91965 132 ft 8 kts 318°
2026-04-26 10:59 40.62280 14.91892 132 ft 11 kts 275°
2026-04-26 10:59 40.62292 14.91784 127 ft 12 kts 271°
2026-04-26 10:59 40.62237 14.91665 123 ft 32 kts 231°
2026-04-26 10:59 40.61908 14.91111 113 ft 119 kts 232°
2026-04-26 11:00 40.61253 14.90025 308 ft 171 kts 231°
2026-04-26 11:00 40.60501 14.88790 1395 ft 176 kts 231°
2026-04-26 11:00 40.59703 14.87487 2264 ft 196 kts 230°
2026-04-26 11:00 40.58759 14.85995 2556 ft 226 kts 230°
2026-04-26 11:01 40.57722 14.84364 2935 ft 238 kts 230°
2026-04-26 11:01 40.56638 14.82658 3360 ft 245 kts 230°
2026-04-26 11:01 40.55551 14.80944 3822 ft 249 kts 230°
2026-04-26 11:01 40.54427 14.79171 4231 ft 260 kts 230°
2026-04-26 11:02 40.53234 14.77287 4603 ft 274 kts 230°
2026-04-26 11:02 40.51999 14.75337 5283 ft 278 kts 230°
2026-04-26 11:02 40.50763 14.73385 6066 ft 279 kts 230°
2026-04-26 11:02 40.49516 14.71417 6787 ft 281 kts 230°
2026-04-26 11:03 40.48255 14.69427 7471 ft 284 kts 230°
2026-04-26 11:03 40.46986 14.67426 8130 ft 288 kts 230°
2026-04-26 11:03 40.45698 14.65395 8847 ft 289 kts 230°
2026-04-26 11:03 40.44404 14.63358 9537 ft 292 kts 230°
2026-04-26 11:04 40.43095 14.61299 10214 ft 295 kts 230°
2026-04-26 11:04 40.41899 14.59019 10421 ft 315 kts 248°
2026-04-26 11:04 40.41522 14.56125 10595 ft 334 kts 274°
2026-04-26 11:04 40.42148 14.53135 10815 ft 348 kts 298°
2026-04-26 11:05 40.43562 14.50533 11318 ft 353 kts 314°
2026-04-26 11:05 40.45356 14.48315 11956 ft 356 kts 320°
2026-04-26 11:05 40.47256 14.46204 12584 ft 359 kts 321°
2026-04-26 11:05 40.49174 14.44079 13207 ft 363 kts 320°
2026-04-26 11:06 40.51093 14.41900 13849 ft 367 kts 319°
2026-04-26 11:06 40.52363 14.40425 14243 ft 369 kts 319°
2026-04-26 11:06 40.54932 14.37393 15076 ft 373 kts 319°
2026-04-26 11:06 40.56839 14.35126 15704 ft 375 kts 319°
2026-04-26 11:07 40.58951 14.33035 16324 ft 377 kts 334°
2026-04-26 11:07 40.61379 14.31722 16984 ft 378 kts 340°
2026-04-26 11:07 40.63852 14.30512 17590 ft 381 kts 340°
2026-04-26 11:07 40.66318 14.29317 18171 ft 384 kts 340°
2026-04-26 11:08 40.68838 14.28086 18728 ft 387 kts 340°
2026-04-26 11:08 40.71367 14.26836 19259 ft 390 kts 340°
2026-04-26 11:08 40.73926 14.25560 19775 ft 393 kts 340°
2026-04-26 11:08 40.76489 14.24271 20277 ft 396 kts 340°
2026-04-26 11:09 40.79071 14.22967 20777 ft 399 kts 340°
2026-04-26 11:09 40.81675 14.21648 21289 ft 402 kts 340°
2026-04-26 11:09 40.84298 14.20318 21763 ft 406 kts 340°
2026-04-26 11:09 40.86940 14.18976 22241 ft 409 kts 340°
2026-04-26 11:10 40.89606 14.17621 22730 ft 412 kts 340°
2026-04-26 11:10 40.92263 14.16270 23211 ft 415 kts 340°
2026-04-26 11:10 40.94966 14.14894 23660 ft 418 kts 340°
2026-04-26 11:10 40.97697 14.13503 24044 ft 421 kts 340°
2026-04-26 11:11 41.00434 14.12107 24440 ft 423 kts 340°
2026-04-26 11:11 41.03191 14.10699 24818 ft 425 kts 340°
2026-04-26 11:11 41.05960 14.09284 25185 ft 428 kts 340°
2026-04-26 11:11 41.08750 14.07857 25537 ft 431 kts 340°
2026-04-26 11:12 41.11549 14.06425 25894 ft 434 kts 340°
2026-04-26 11:12 41.14379 14.04975 26266 ft 436 kts 340°
2026-04-26 11:12 41.17214 14.03521 26610 ft 438 kts 340°
2026-04-26 11:12 41.20066 14.02057 26957 ft 441 kts 340°
2026-04-26 11:13 41.22936 14.00582 27299 ft 443 kts 340°
2026-04-26 11:13 41.25815 13.99102 27642 ft 445 kts 340°
2026-04-26 11:13 41.28710 13.97612 27957 ft 447 kts 340°
2026-04-26 11:13 41.31630 13.96307 28254 ft 449 kts 345°
2026-04-26 11:14 41.34648 13.95206 28564 ft 451 kts 346°
2026-04-26 11:14 41.37695 13.94164 28890 ft 453 kts 347°
2026-04-26 11:14 41.40761 13.93133 29192 ft 455 kts 347°
2026-04-26 11:14 41.42831 13.92434 29392 ft 456 kts 347°
2026-04-26 11:15 41.46925 13.91033 29768 ft 459 kts 346°
2026-04-26 11:15 41.50024 13.89955 30065 ft 461 kts 346°
2026-04-26 11:15 41.53123 13.88868 30354 ft 461 kts 346°
2026-04-26 11:15 41.56224 13.87773 30706 ft 460 kts 346°
2026-04-26 11:16 41.59316 13.86679 31069 ft 459 kts 346°
2026-04-26 11:16 41.62405 13.85584 31410 ft 458 kts 346°
2026-04-26 11:16 41.65489 13.84490 31707 ft 458 kts 346°
2026-04-26 11:16 41.68525 13.83412 31981 ft 458 kts 346°
2026-04-26 11:17 41.71603 13.82319 32277 ft 457 kts 346°
2026-04-26 11:17 41.74675 13.81227 32598 ft 456 kts 346°
2026-04-26 11:17 41.77741 13.80136 32909 ft 455 kts 346°
2026-04-26 11:17 41.80811 13.79043 33171 ft 456 kts 346°
2026-04-26 11:18 41.83873 13.77952 33463 ft 455 kts 346°
2026-04-26 11:18 41.85896 13.77230 33677 ft 455 kts 346°
2026-04-26 11:18 41.88961 13.76136 33990 ft 454 kts 346°
2026-04-26 11:18 41.92009 13.75046 34252 ft 453 kts 346°
2026-04-26 11:19 41.95058 13.73955 34478 ft 453 kts 346°
2026-04-26 11:19 41.98109 13.72863 34725 ft 452 kts 346°
2026-04-26 11:19 42.01137 13.71777 34989 ft 451 kts 346°
2026-04-26 11:19 42.04169 13.70689 35218 ft 450 kts 346°
2026-04-26 11:20 42.07196 13.69602 35434 ft 450 kts 346°
2026-04-26 11:20 42.10215 13.68517 35671 ft 449 kts 346°
2026-04-26 11:20 42.13232 13.67431 35917 ft 448 kts 346°
2026-04-26 11:20 42.16239 13.66348 36139 ft 447 kts 346°
2026-04-26 11:21 42.19244 13.65264 36357 ft 447 kts 346°
2026-04-26 11:21 42.22242 13.64182 36595 ft 445 kts 345°
2026-04-26 11:21 42.25231 13.63102 36818 ft 444 kts 345°
2026-04-26 11:21 42.28218 13.62022 36979 ft 444 kts 345°
2026-04-26 11:22 42.31204 13.60941 37156 ft 444 kts 345°
2026-04-26 11:22 42.34180 13.59863 37378 ft 443 kts 345°
2026-04-26 11:22 42.37098 13.58715 37578 ft 442 kts 343°
2026-04-26 11:22 42.40016 13.57433 37759 ft 441 kts 342°
2026-04-26 11:23 42.42924 13.56095 37901 ft 441 kts 341°
2026-04-26 11:23 42.45828 13.54742 38087 ft 439 kts 341°
2026-04-26 11:23 42.51622 13.52057 38121 ft 441 kts 341°
2026-04-26 11:24 42.57434 13.49396 38138 ft 441 kts 341°
2026-04-26 11:24 42.63255 13.46744 38130 ft 441 kts 341°
2026-04-26 11:25 42.69072 13.44093 38132 ft 440 kts 341°
2026-04-26 11:25 42.74882 13.41439 38124 ft 440 kts 341°
2026-04-26 11:26 42.80690 13.38781 38126 ft 440 kts 341°
2026-04-26 11:26 42.86455 13.36135 38134 ft 439 kts 341°
2026-04-26 11:27 42.92246 13.33474 38124 ft 439 kts 341°
2026-04-26 11:27 42.98040 13.30805 38118 ft 439 kts 341°
2026-04-26 11:28 43.03805 13.28146 38128 ft 438 kts 341°
2026-04-26 11:28 43.09583 13.25473 38121 ft 437 kts 341°
2026-04-26 11:29 43.15338 13.22806 38134 ft 436 kts 340°
2026-04-26 11:29 43.21095 13.20134 38122 ft 436 kts 340°
2026-04-26 11:30 43.25871 13.17912 38124 ft 436 kts 340°
2026-04-26 11:30 43.32549 13.14800 38124 ft 436 kts 340°
2026-04-26 11:31 43.38293 13.12117 38129 ft 436 kts 340°
2026-04-26 11:31 43.44050 13.09422 38125 ft 437 kts 340°
2026-04-26 11:32 43.49809 13.06722 38127 ft 437 kts 340°
2026-04-26 11:32 43.55572 13.04013 38132 ft 438 kts 340°
2026-04-26 11:33 43.61340 13.01297 38131 ft 438 kts 340°
2026-04-26 11:33 43.67109 12.98576 38128 ft 438 kts 340°
2026-04-26 11:34 43.72774 12.95591 38125 ft 438 kts 336°
2026-04-26 11:34 43.78394 12.92346 38125 ft 437 kts 336°
2026-04-26 11:35 43.84011 12.89093 38125 ft 437 kts 336°
2026-04-26 11:35 43.89641 12.85863 38114 ft 438 kts 336°
2026-04-26 11:36 43.95280 12.82641 38118 ft 437 kts 336°
2026-04-26 11:36 44.00908 12.79425 38102 ft 437 kts 336°
2026-04-26 11:37 44.06482 12.76233 38108 ft 436 kts 336°
2026-04-26 11:37 44.12090 12.73014 38108 ft 435 kts 336°
2026-04-26 11:38 44.17680 12.69798 38111 ft 434 kts 336°
2026-04-26 11:38 44.23264 12.66579 38117 ft 434 kts 336°
2026-04-26 11:39 44.28848 12.63353 38131 ft 433 kts 336°
2026-04-26 11:39 44.34384 12.60149 38129 ft 433 kts 335°
2026-04-26 11:40 44.39942 12.56925 38127 ft 432 kts 335°
2026-04-26 11:40 44.45488 12.53701 38122 ft 431 kts 335°
2026-04-26 11:42 44.67597 12.40785 38116 ft 429 kts 335°
2026-04-26 11:43 44.73102 12.37551 38115 ft 429 kts 335°
2026-04-26 11:43 44.78609 12.34311 38112 ft 429 kts 335°
2026-04-26 11:44 44.84120 12.31061 38121 ft 429 kts 335°
2026-04-26 11:44 44.89639 12.27799 38117 ft 430 kts 335°
2026-04-26 11:45 44.95167 12.24526 38112 ft 431 kts 335°
2026-04-26 11:45 45.00673 12.21259 38117 ft 432 kts 335°
2026-04-26 11:46 45.06225 12.17957 38112 ft 433 kts 335°
2026-04-26 11:46 45.11784 12.14644 38121 ft 434 kts 335°
2026-04-26 11:47 45.17349 12.11321 38121 ft 434 kts 335°
2026-04-26 11:47 45.22918 12.07988 38101 ft 435 kts 334°
2026-04-26 11:48 45.28489 12.04647 38104 ft 435 kts 334°
2026-04-26 11:48 45.34059 12.01300 38114 ft 434 kts 334°
2026-04-26 11:49 45.39621 11.97950 38104 ft 434 kts 334°
2026-04-26 11:49 45.45179 11.94595 38103 ft 434 kts 334°
2026-04-26 11:50 45.50733 11.91236 38101 ft 433 kts 334°
2026-04-26 11:50 45.56250 11.87891 38109 ft 433 kts 334°
2026-04-26 11:51 45.61793 11.84523 38111 ft 433 kts 334°
2026-04-26 11:51 45.67341 11.81146 38107 ft 432 kts 334°
2026-04-26 11:52 45.71938 11.78342 38111 ft 432 kts 334°
2026-04-26 11:52 45.78406 11.74388 38129 ft 432 kts 334°
2026-04-26 11:53 45.83938 11.70998 38147 ft 433 kts 334°
2026-04-26 11:54 45.92209 11.65915 38159 ft 434 kts 334°
2026-04-26 11:54 45.97765 11.62492 38165 ft 434 kts 334°
2026-04-26 11:55 46.03313 11.59067 38176 ft 434 kts 334°
2026-04-26 11:55 46.08866 11.55630 38175 ft 434 kts 334°
2026-04-26 11:56 46.14409 11.52192 38176 ft 434 kts 334°
2026-04-26 11:56 46.19968 11.48737 38198 ft 435 kts 334°
2026-04-26 11:57 46.25524 11.45276 38117 ft 435 kts 334°
2026-04-26 11:57 46.31074 11.41811 38103 ft 434 kts 334°
2026-04-26 11:58 46.36620 11.38341 38076 ft 434 kts 334°
2026-04-26 11:58 46.42126 11.34887 38082 ft 433 kts 334°
2026-04-26 11:59 46.47646 11.31414 38045 ft 432 kts 334°
2026-04-26 11:59 46.53134 11.27890 38056 ft 430 kts 333°
2026-04-26 12:00 46.58603 11.24353 38062 ft 430 kts 333°
2026-04-26 12:00 46.64086 11.20805 38114 ft 433 kts 333°
2026-04-26 12:01 46.69581 11.17246 38149 ft 434 kts 333°
2026-04-26 12:01 46.75076 11.13681 38183 ft 432 kts 333°
2026-04-26 12:02 46.80558 11.10115 38215 ft 431 kts 333°
2026-04-26 12:02 46.86021 11.06554 38215 ft 430 kts 333°
2026-04-26 12:03 46.91491 11.02985 38194 ft 430 kts 334°
2026-04-26 12:03 46.96943 10.99419 38196 ft 429 kts 333°
2026-04-26 12:04 47.01468 10.96454 38212 ft 429 kts 333°
2026-04-26 12:04 47.07804 10.92292 38206 ft 429 kts 333°
2026-04-26 12:05 47.13247 10.88707 38213 ft 427 kts 333°
2026-04-26 12:05 47.18675 10.85124 38186 ft 428 kts 333°
2026-04-26 12:06 47.23190 10.82137 38203 ft 429 kts 333°
2026-04-26 12:06 47.28654 10.78515 38200 ft 431 kts 333°
2026-04-26 12:07 47.34134 10.74874 38192 ft 433 kts 333°
2026-04-26 12:07 47.39599 10.71067 38199 ft 433 kts 326°
2026-04-26 12:08 47.44567 10.66084 38201 ft 432 kts 322°
2026-04-26 12:08 47.49455 10.60967 38211 ft 433 kts 322°
2026-04-26 12:09 47.54429 10.55817 38202 ft 434 kts 323°
2026-04-26 12:09 47.59356 10.50747 38206 ft 433 kts 323°
2026-04-26 12:10 47.64301 10.45655 38205 ft 431 kts 323°
2026-04-26 12:10 47.69216 10.40578 38219 ft 429 kts 323°
2026-04-26 12:11 47.74107 10.35515 38210 ft 427 kts 322°
2026-04-26 12:11 47.78776 10.30122 38224 ft 424 kts 318°
2026-04-26 12:12 47.83303 10.24516 38235 ft 422 kts 318°
2026-04-26 12:12 47.87820 10.18927 38235 ft 422 kts 318°
2026-04-26 12:13 47.92356 10.13353 38245 ft 422 kts 318°
2026-04-26 12:13 47.96897 10.07781 38243 ft 423 kts 318°
2026-04-26 12:14 48.01423 10.02220 38247 ft 424 kts 318°
2026-04-26 12:14 48.05987 9.96596 38234 ft 426 kts 318°
2026-04-26 12:15 48.10574 9.90929 38235 ft 428 kts 318°
2026-04-26 12:15 48.15180 9.85227 38242 ft 430 kts 318°
2026-04-26 12:16 48.19789 9.79505 38243 ft 431 kts 318°
2026-04-26 12:16 48.24415 9.73749 38225 ft 432 kts 318°
2026-04-26 12:17 48.29032 9.67991 38231 ft 431 kts 318°
2026-04-26 12:17 48.33642 9.62228 38223 ft 431 kts 318°
2026-04-26 12:18 48.38182 9.56449 38214 ft 430 kts 317°
2026-04-26 12:18 48.42720 9.50595 38223 ft 429 kts 317°
2026-04-26 12:19 48.47257 9.44739 38222 ft 429 kts 317°
2026-04-26 12:19 48.51791 9.38880 38219 ft 429 kts 317°
2026-04-26 12:20 48.56314 9.33027 38231 ft 428 kts 317°
2026-04-26 12:20 48.60859 9.27218 38232 ft 428 kts 321°
2026-04-26 12:21 48.66090 9.22887 38249 ft 431 kts 334°
2026-04-26 12:21 48.71629 9.19340 38244 ft 431 kts 334°
2026-04-26 12:22 48.77140 9.15757 38234 ft 431 kts 334°
2026-04-26 12:22 48.82639 9.12108 38230 ft 431 kts 334°
2026-04-26 12:23 48.88133 9.08447 38244 ft 431 kts 334°
2026-04-26 12:23 48.93571 9.04729 38228 ft 431 kts 333°
2026-04-26 12:24 48.99034 9.00929 38229 ft 432 kts 333°
2026-04-26 12:24 49.04508 8.97124 38235 ft 432 kts 333°
2026-04-26 12:25 49.12712 8.91418 38241 ft 432 kts 333°
2026-04-26 12:25 49.18175 8.87608 38238 ft 432 kts 333°
2026-04-26 12:26 49.23804 8.84297 38256 ft 434 kts 340°
2026-04-26 12:26 49.29590 8.81572 38247 ft 435 kts 340°
2026-04-26 12:27 49.35337 8.78857 38255 ft 434 kts 340°
2026-04-26 12:27 49.41093 8.76064 38256 ft 434 kts 340°
2026-04-26 12:28 49.46833 8.73244 38265 ft 433 kts 339°
2026-04-26 12:28 49.52576 8.70415 38270 ft 433 kts 340°
2026-04-26 12:29 49.58313 8.67583 38265 ft 433 kts 339°
2026-04-26 12:30 49.66902 8.63333 38264 ft 433 kts 339°
2026-04-26 12:30 49.72362 8.59601 38268 ft 427 kts 324°
2026-04-26 12:31 49.78994 8.50535 38265 ft 424 kts 314°
2026-04-26 12:31 49.83158 8.44088 38252 ft 423 kts 306°
2026-04-26 12:32 49.86124 8.36350 38262 ft 420 kts 290°
2026-04-26 12:33 49.88817 8.23447 38280 ft 420 kts 287°
2026-04-26 12:33 49.90585 8.14788 38277 ft 421 kts 287°
2026-04-26 12:34 49.92380 8.06136 38273 ft 421 kts 288°
2026-04-26 12:34 49.94180 7.97459 38272 ft 422 kts 287°
2026-04-26 12:35 49.95901 7.88729 38271 ft 423 kts 286°
2026-04-26 12:35 49.97552 7.79969 38265 ft 423 kts 286°
2026-04-26 12:36 49.99218 7.71256 38259 ft 423 kts 287°
2026-04-26 12:36 50.01004 7.62544 38262 ft 423 kts 288°
2026-04-26 12:37 50.02767 7.53997 38248 ft 405 kts 287°
2026-04-26 12:37 50.04452 7.45714 38266 ft 400 kts 287°
2026-04-26 12:38 50.06124 7.37437 37949 ft 401 kts 287°
2026-04-26 12:38 50.06959 7.33293 37207 ft 404 kts 287°
2026-04-26 12:38 50.07725 7.29039 36336 ft 412 kts 282°
2026-04-26 12:38 50.08085 7.24592 35588 ft 418 kts 274°
2026-04-26 12:39 50.08257 7.20065 35099 ft 417 kts 274°
2026-04-26 12:39 50.08412 7.15593 34752 ft 412 kts 274°
2026-04-26 12:39 50.08569 7.11218 34409 ft 407 kts 274°
2026-04-26 12:39 50.08738 7.06829 33968 ft 405 kts 274°
2026-04-26 12:40 50.08912 7.02474 33490 ft 402 kts 275°
2026-04-26 12:40 50.09089 6.98138 33024 ft 400 kts 275°
2026-04-26 12:40 50.09264 6.93827 32595 ft 397 kts 275°
2026-04-26 12:40 50.09435 6.89547 32174 ft 394 kts 275°
2026-04-26 12:41 50.09518 6.85294 31769 ft 392 kts 271°
2026-04-26 12:41 50.09447 6.81057 31356 ft 390 kts 269°
2026-04-26 12:41 50.09347 6.76842 30957 ft 388 kts 270°
2026-04-26 12:41 50.09246 6.72650 30563 ft 386 kts 270°
2026-04-26 12:42 50.09148 6.68485 30148 ft 384 kts 270°
2026-04-26 12:42 50.09052 6.64347 29695 ft 381 kts 270°
2026-04-26 12:42 50.08958 6.60232 29247 ft 378 kts 270°
2026-04-26 12:42 50.08865 6.56145 28786 ft 376 kts 270°
2026-04-26 12:43 50.08771 6.52079 28344 ft 374 kts 270°
2026-04-26 12:43 50.08678 6.48104 27931 ft 372 kts 270°
2026-04-26 12:43 50.08582 6.44079 27497 ft 370 kts 270°
2026-04-26 12:43 50.08485 6.40091 27083 ft 368 kts 270°
2026-04-26 12:44 50.08401 6.36128 26672 ft 365 kts 270°
2026-04-26 12:44 50.08325 6.32186 26269 ft 363 kts 270°
2026-04-26 12:44 50.08249 6.28269 25883 ft 361 kts 270°
2026-04-26 12:44 50.08170 6.24359 25503 ft 359 kts 270°
2026-04-26 12:45 50.08086 6.20476 25131 ft 358 kts 270°